COSMOS 2499 DEB

基本信息
目录编号:
49942
目录名称:
COSMOS 2499 DEB
国际标识:
2014-028Z
轨道中心:
EARTH
物体状态:
在轨
发射日期:
2014-05-23 UTC
轨道信息
数据来源: 国际轨道数据
星历时间: 2026-09-14T20:41:42+0800
半长轴: 7696.281km
偏心率: 0.0194543
轨道倾角: 82.458°
近地点辐角: 148.198°
升交点赤经: 194.948°
平近点角: 213.105°
近地点: 1168.418km
远地点: 1467.87km
周期: 111.990分钟
每日圈数: 12.858238
详细信息
发射场:
PKMTR
轨道高度:
LEO
数据来源:
AOE Integration Group
参考系:
TEME
时间系统:
UTC
历元类型:
SGP4
2D轨道图
3D轨道图
轨道高度分析图
轨道倾角分析图
轨道综合分析图
查看轨道综合分析图